Regional Weather Roundup
Issued by NWS Cleveland, OH

Home | Current Version | Previous Version | Text Only | Print | Product List | Glossary Off
Versions: 1 2 3 4 5 6 7 8 9 10 11 12 13 14 15 16 17 18 19 20 21 22 23 24 25 26 27 28 29 30 31 32 33 34 35 36 37 38 39 40 41 42 43 44 45 46 47 48 49 50

000
ASUS41 KCLE 281212
RWRCLE
OHIO REGIONAL WEATHER ROUNDUP
NATIONAL WEATHER SERVICE WILMINGTON, OH
800 AM EDT FRI APR 28 2017

NOTE: "FAIR" INDICATES FEW OR NO CLOUDS BELOW 12,000 FEET WITH NO
SIGNIFICANT WEATHER AND/OR OBSTRUCTIONS TO VISIBILITY.

OHZ001>008-015>018-024>027-034-035-043-044-281300-
   NORTHWEST OHIO

CITY           SKY/WX    TMP DP  RH WIND       PRES   REMARKS
DEFIANCE       FAIR      45  40  82 S8        29.98R
FINDLAY        FAIR      46  41  82 SE7       29.96F
TOLEDO EXPRESS FAIR      44  40  85 S5        29.96S
TOLEDO EXEC    FAIR      47  42  83 SE5       29.97S
LIMA           FAIR      46  43  89 S8        29.98R
$$

OHZ009>014-019>023-028>033-038-089-281300-
   NORTHEAST OHIO

CITY           SKY/WX    TMP DP  RH WIND       PRES   REMARKS
CLE-HOPKINS    FAIR      50  41  71 S8        30.03R
CLE-LAKEFRONT  FAIR      50  41  71 SW8       30.00S
CUY CO. ARPT   MOSUNNY   50  45  81 S7        30.02R
LORAIN-ELYRIA  FAIR      47  41  80 S7        30.01S
ASHTABULA      CLOUDY    49  44  83 SW7       30.03R
AKRON-CANTON   FAIR      50  42  74 VRB3      30.03R
WOOSTER        FAIR      48  44  86 SW5       30.04R
MANSFIELD      FAIR      47  42  83 S6        30.02R
YOUNGSTOWN     FAIR      50  43  77 SW3       30.03R
$$

OHZ042-051>053-060>062-070>072-077>081-281300-
  SOUTHWEST OHIO

CITY           SKY/WX    TMP DP  RH WIND       PRES   REMARKS
CINC-COVINGTON PTSUNNY   51  46  83 E8        30.03R
CINC-LUNKEN    FAIR      50  49  96 W5        30.06R
HAMILTON       FAIR      50  48  93 CALM      30.04R
DAYTON         PTSUNNY   47  44  90 SE10      30.01R
WRIGHT-PAT AFB CLOUDY    49  46  90 SE6       30.02R
DAYTON GENERAL FAIR      49  45  86 E5        30.02R
WILMINGTON     FAIR      49  47  93 E5        30.01R
$$

OHZ036-037-039>041-045>050-054>059-063>069-073>076-082>088-281300-
  CENTRAL AND SOUTHEAST OHIO

CITY           SKY/WX    TMP DP  RH WIND       PRES   REMARKS
COLUMBUS       CLOUDY    52  47  83 E5        30.03R
OSU AIRPORT    FAIR      50  46  86 E5        30.03R
BOLTON FIELD   PTSUNNY   50  47  92 CALM      30.03R FOG
RICKENBACK AFB FAIR      48  47  95 CALM      30.03R
NEWARK         FAIR      50  46  86 CALM      30.04R
MARION         FAIR      47  43  86 SE8       30.00S
LANCASTER      FAIR      50  46  86 CALM      30.04R
ZANESVILLE     FAIR      48  45  89 CALM      30.04R
NEW PHILLY     FAIR      48  46  93 CALM      30.05R
$$



USA.gov is the U.S. government's official web portal to all federal, state and local government web resources and services.